QPF
0.00 0.00 0.00 0.00 0.00 0.00 0.00 0.00 0.00 0.00 0.00 0.00 0.00 0.00 0.00 0.00 0.00 0.00 0.00 0.00 0.01 0.01 0.01 0.00 0.01 0.03 0.06 0.08 0.11 0.15 0.18 0.18 0.15 0.13 0.15 0.18 0.15 0.07 0.03 0.02 0.01 0.00 0.00
0.00 0.00 0.00 0.00 0.00 0.00 0.00 0.00 0.00 0.00 0.00 0.00 0.00 0.00 0.00 0.00 0.00 0.00 0.00 0.00 0.01 0.01 0.01 0.01 0.01 0.01 0.02 0.05 0.07 0.10 0.14 0.17 0.17 0.17 0.19 0.23 0.19 0.12 0.06 0.03 0.01 0.00 0.00
0.00 0.00 0.00 0.00 0.00 0.00 0.00 0.00 0.00 0.00 0.00 0.00 0.00 0.00 0.00 0.00 0.00 0.00 0.00 0.00 0.01 0.01 0.02 0.02 0.01 0.01 0.01 0.02 0.04 0.07 0.10 0.15 0.19 0.20 0.24 0.29 0.29 0.21 0.09 0.03 0.01 0.00 0.00
0.00 0.00 0.00 0.00 0.00 0.00 0.00 0.00 0.00 0.00 0.00 0.00 0.00 0.00 0.00 0.00 0.00 0.00 0.00 0.00 0.01 0.02 0.02 0.02 0.02 0.01 0.01 0.01 0.01 0.03 0.07 0.11 0.17 0.21 0.27 0.35 0.36 0.31 0.15 0.05 0.03 0.01 0.00
0.00 0.00 0.00 0.00 0.00 0.00 0.00 0.00 0.00 0.00 0.00 0.00 0.00 0.00 0.00 0.00 0.00 0.00 0.00 0.00 0.01 0.02 0.02 0.03 0.03 0.02 0.01 0.01 0.01 0.01 0.03 0.06 0.12 0.18 0.25 0.35 0.38 0.31 0.15 0.08 0.06 0.03 0.01
0.00 0.00 0.00 0.00 0.00 0.00 0.00 0.00 0.00 0.00 0.00 0.00 0.00 0.00 0.00 0.00 0.00 0.00 0.00 0.00 0.01 0.02 0.02 0.03 0.03 0.03 0.03 0.02 0.01 0.01 0.01 0.03 0.06 0.11 0.18 0.29 0.36 0.32 0.23 0.14 0.08 0.05 0.02
0.00 0.00 0.00 0.00 0.00 0.00 0.00 0.00 0.00 0.00 0.00 0.00 0.00 0.00 0.00 0.00 0.00 0.00 0.00 0.00 0.01 0.01 0.02 0.03 0.02 0.02 0.03 0.03 0.02 0.02 0.01 0.01 0.03 0.07 0.13 0.19 0.33 0.42 0.35 0.18 0.10 0.07 0.03
0.00 0.00 0.00 0.00 0.00 0.00 0.00 0.00 0.00 0.00 0.00 0.00 0.00 0.00 0.00 0.00 0.00 0.00 0.00 0.00 0.00 0.01 0.02 0.03 0.03 0.03 0.04 0.05 0.05 0.03 0.01 0.01 0.01 0.02 0.06 0.13 0.26 0.43 0.53 0.36 0.20 0.12 0.06
0.00 0.00 0.00 0.00 0.00 0.00 0.00 0.00 0.00 0.00 0.00 0.00 0.00 0.00 0.00 0.00 0.00 0.00 0.00 0.00 0.00 0.01 0.02 0.03 0.04 0.03 0.03 0.06 0.07 0.05 0.03 0.01 0.01 0.01 0.03 0.09 0.20 0.36 0.51 0.55 0.32 0.15 0.09
0.00 0.00 0.00 0.00 0.00 0.00 0.00 0.00 0.00 0.00 0.00 0.00 0.00 0.01 0.01 0.01 0.01 0.00 0.00 0.00 0.01 0.01 0.02 0.04 0.06 0.06 0.06 0.06 0.07 0.07 0.05 0.02 0.02 0.01 0.02 0.06 0.13 0.25 0.40 0.48 0.42 0.24 0.10
0.00 0.00 0.00 0.00 0.00 0.00 0.00 0.00 0.00 0.01 0.01 0.01 0.01 0.01 0.01 0.01 0.01 0.00 0.00 0.00 0.01 0.02 0.03 0.05 0.08 0.08 0.08 0.07 0.07 0.07 0.06 0.06 0.04 0.02 0.02 0.04 0.09 0.17 0.28 0.37 0.40 0.31 0.15
0.00 0.00 0.00 0.00 0.00 0.00 0.00 0.00 0.01 0.01 0.01 0.01 0.01 0.01 0.01 0.01 0.01 0.01 0.00 0.00 0.02 0.04 0.06 0.07 0.10 0.09 0.08 0.07 0.07 0.07 0.08 0.08 0.07 0.04 0.02 0.03 0.06 0.12 0.22 0.31 0.37 0.34 0.22
0.00 0.00 0.00 0.00 0.00 0.00 0.00 0.01 0.01 0.01 0.01 0.01 0.01 0.01 0.01 0.01 0.01 0.00 0.00 0.00 0.02 0.06 0.07 0.08 0.08 0.07 0.07 0.06 0.06 0.07 0.08 0.08 0.07 0.05 0.02 0.02 0.04 0.10 0.19 0.27 0.36 0.37 0.31
0.00 0.00 0.00 0.00 0.00 0.00 0.00 0.01 0.01 0.01 0.01 0.01 0.01 0.00 0.01 0.01 0.01 0.01 0.00 0.00 0.01 0.03 0.05 0.07 0.07 0.06 0.05 0.04 0.04 0.05 0.06 0.07 0.06 0.05 0.03 0.03 0.06 0.11 0.18 0.24 0.31 0.33 0.31
0.00 0.00 0.00 0.00 0.00 0.00 0.00 0.01 0.02 0.01 0.01 0.01 0.00 0.00 0.00 0.00 0.00 0.00 0.00 0.01 0.02 0.02 0.03 0.06 0.06 0.05 0.04 0.04 0.04 0.04 0.04 0.06 0.05 0.05 0.04 0.05 0.07 0.11 0.17 0.22 0.26 0.27 0.22
0.00 0.00 0.00 0.00 0.00 0.00 0.01 0.01 0.02 0.01 0.01 0.00 0.00 0.00 0.00 0.00 0.00 0.00 0.00 0.00 0.00 0.00 0.01 0.04 0.04 0.04 0.05 0.05 0.05 0.05 0.04 0.04 0.03 0.03 0.03 0.04 0.06 0.11 0.15 0.18 0.22 0.25 0.20
0.00 0.00 0.00 0.00 0.00 0.01 0.01 0.01 0.02 0.02 0.01 0.00 0.00 0.00 0.00 0.00 0.00 0.00 0.00 0.00 0.00 0.00 0.00 0.02 0.04 0.04 0.04 0.05 0.05 0.05 0.04 0.02 0.02 0.02 0.03 0.04 0.06 0.10 0.14 0.15 0.15 0.19 0.21
0.00 0.00 0.00 0.00 0.01 0.01 0.01 0.02 0.03 0.03 0.01 0.01 0.01 0.00 0.00 0.00 0.00 0.00 0.00 0.00 0.00 0.00 0.00 0.01 0.03 0.05 0.04 0.03 0.03 0.04 0.03 0.03 0.02 0.02 0.02 0.04 0.07 0.09 0.12 0.14 0.13 0.11 0.15
0.00 0.00 0.00 0.00 0.00 0.01 0.02 0.03 0.03 0.02 0.02 0.01 0.01 0.00 0.00 0.00 0.00 0.00 0.00 0.00 0.00 0.00 0.00 0.00 0.01 0.02 0.03 0.03 0.03 0.04 0.04 0.04 0.03 0.02 0.02 0.04 0.07 0.09 0.10 0.13 0.14 0.12 0.10
0.00 0.00 0.00 0.00 0.01 0.01 0.01 0.02 0.02 0.02 0.02 0.01 0.01 0.01 0.00 0.00 0.00 0.00 0.00 0.00 0.00 0.00 0.01 0.01 0.01 0.02 0.02 0.02 0.02 0.04 0.04 0.05 0.04 0.04 0.03 0.03 0.05 0.08 0.08 0.10 0.13 0.13 0.08
0.00 0.00 0.00 0.00 0.01 0.01 0.01 0.01 0.02 0.02 0.02 0.02 0.01 0.01 0.01 0.00 0.01 0.01 0.01 0.01 0.01 0.01 0.02 0.02 0.01 0.01 0.02 0.02 0.02 0.03 0.03 0.03 0.04 0.04 0.04 0.04 0.04 0.06 0.07 0.08 0.10 0.10 0.08
0.00 0.00 0.00 0.00 0.00 0.00 0.00 0.01 0.02 0.02 0.02 0.02 0.02 0.01 0.01 0.01 0.01 0.02 0.02 0.03 0.02 0.02 0.02 0.01 0.01 0.01 0.01 0.02 0.02 0.02 0.02 0.02 0.03 0.03 0.03 0.04 0.04 0.05 0.07 0.08 0.09 0.10 0.09
0.00 0.00 0.00 0.00 0.00 0.00 0.01 0.01 0.02 0.02 0.02 0.02 0.02 0.02 0.02 0.02 0.02 0.02 0.03 0.04 0.04 0.04 0.03 0.02 0.02 0.02 0.02 0.02 0.02 0.02 0.02 0.02 0.02 0.02 0.02 0.03 0.04 0.06 0.06 0.07 0.08 0.09 0.09
0.00 0.00 0.00 0.00 0.00 0.00 0.01 0.01 0.02 0.02 0.02 0.02 0.02 0.02 0.03 0.03 0.03 0.04 0.04 0.04 0.05 0.05 0.05 0.05 0.04 0.03 0.03 0.03 0.02 0.02 0.01 0.02 0.02 0.02 0.02 0.02 0.04 0.05 0.07 0.08 0.09 0.09 0.09
0.00 0.00 0.00 0.00 0.00 0.00 0.01 0.01 0.02 0.02 0.02 0.02 0.03 0.03 0.04 0.04 0.03 0.04 0.04 0.04 0.04 0.05 0.06 0.06 0.05 0.05 0.05 0.04 0.03 0.02 0.02 0.02 0.03 0.02 0.03 0.03 0.04 0.05 0.07 0.09 0.11 0.11 0.11
0.00 0.00 0.00 0.00 0.01 0.01 0.01 0.01 0.02 0.03 0.03 0.02 0.03 0.03 0.04 0.05 0.05 0.06 0.06 0.06 0.06 0.07 0.07 0.07 0.06 0.06 0.05 0.03 0.02 0.02 0.02 0.03 0.04 0.06 0.07 0.06 0.06 0.07 0.09 0.12 0.14 0.15 0.15
MSLP
1013.49 1013.46 1013.47 1013.48 1013.47 1013.41 1013.29 1013.13 1012.94 1012.72 1012.49 1012.25 1012.01 1011.77 1011.51 1011.24 1010.97 1010.70 1010.45 1010.24 1010.08 1009.97 1009.91 1009.88 1009.87 1009.84 1009.79 1009.71 1009.60 1009.46 1009.31 1009.18 1009.07 1009.01 1009.00 1009.04 1009.12 1009.24 1009.39 1009.56 1009.77 1010.00 1010.26
1013.20 1013.14 1013.11 1013.09 1013.06 1013.00 1012.89 1012.74 1012.56 1012.35 1012.13 1011.89 1011.65 1011.39 1011.13 1010.86 1010.59 1010.35 1010.13 1009.95 1009.81 1009.73 1009.68 1009.66 1009.65 1009.63 1009.59 1009.52 1009.43 1009.33 1009.23 1009.14 1009.08 1009.06 1009.09 1009.16 1009.26 1009.40 1009.56 1009.75 1009.96 1010.20 1010.46
1012.87 1012.78 1012.73 1012.68 1012.62 1012.53 1012.41 1012.26 1012.08 1011.87 1011.65 1011.41 1011.16 1010.90 1010.64 1010.39 1010.14 1009.93 1009.74 1009.60 1009.50 1009.44 1009.41 1009.40 1009.40 1009.38 1009.35 1009.29 1009.22 1009.14 1009.08 1009.03 1009.01 1009.02 1009.08 1009.18 1009.31 1009.48 1009.67 1009.89 1010.13 1010.39 1010.68
1012.51 1012.40 1012.32 1012.23 1012.14 1012.02 1011.88 1011.70 1011.51 1011.29 1011.06 1010.82 1010.57 1010.32 1010.08 1009.84 1009.63 1009.44 1009.29 1009.18 1009.11 1009.07 1009.06 1009.06 1009.06 1009.05 1009.02 1008.98 1008.92 1008.87 1008.82 1008.80 1008.80 1008.85 1008.93 1009.06 1009.22 1009.42 1009.65 1009.92 1010.21 1010.53 1010.86
1012.11 1011.99 1011.89 1011.77 1011.64 1011.48 1011.30 1011.10 1010.87 1010.64 1010.40 1010.16 1009.92 1009.68 1009.45 1009.23 1009.04 1008.88 1008.76 1008.67 1008.62 1008.60 1008.60 1008.60 1008.61 1008.60 1008.58 1008.54 1008.50 1008.46 1008.43 1008.43 1008.46 1008.52 1008.63 1008.78 1008.97 1009.20 1009.48 1009.81 1010.17 1010.56 1010.97
1011.69 1011.58 1011.45 1011.31 1011.13 1010.93 1010.71 1010.47 1010.23 1009.97 1009.72 1009.47 1009.23 1009.00 1008.78 1008.58 1008.40 1008.25 1008.14 1008.06 1008.01 1007.99 1007.99 1007.99 1008.00 1007.99 1007.98 1007.95 1007.93 1007.91 1007.90 1007.92 1007.97 1008.05 1008.18 1008.35 1008.57 1008.84 1009.17 1009.55 1009.99 1010.46 1010.96
1011.29 1011.18 1011.04 1010.86 1010.65 1010.42 1010.15 1009.88 1009.60 1009.32 1009.05 1008.79 1008.54 1008.31 1008.08 1007.88 1007.70 1007.55 1007.43 1007.34 1007.28 1007.24 1007.22 1007.22 1007.22 1007.21 1007.21 1007.21 1007.21 1007.22 1007.24 1007.29 1007.37 1007.47 1007.62 1007.82 1008.06 1008.37 1008.74 1009.18 1009.68 1010.23 1010.83
1010.94 1010.83 1010.67 1010.47 1010.23 1009.95 1009.65 1009.34 1009.02 1008.71 1008.42 1008.14 1007.87 1007.61 1007.38 1007.16 1006.96 1006.78 1006.63 1006.51 1006.42 1006.36 1006.32 1006.29 1006.29 1006.29 1006.31 1006.33 1006.37 1006.42 1006.49 1006.58 1006.70 1006.84 1007.01 1007.23 1007.50 1007.83 1008.23 1008.71 1009.26 1009.89 1010.56
1010.66 1010.54 1010.37 1010.15 1009.87 1009.55 1009.21 1008.85 1008.49 1008.15 1007.82 1007.51 1007.21 1006.93 1006.67 1006.42 1006.18 1005.97 1005.79 1005.62 1005.49 1005.39 1005.32 1005.28 1005.26 1005.28 1005.32 1005.38 1005.47 1005.58 1005.71 1005.85 1006.01 1006.20 1006.40 1006.64 1006.93 1007.27 1007.69 1008.19 1008.77 1009.43 1010.17
1010.45 1010.32 1010.13 1009.88 1009.56 1009.20 1008.80 1008.40 1008.00 1007.61 1007.24 1006.89 1006.56 1006.25 1005.95 1005.67 1005.41 1005.16 1004.93 1004.73 1004.56 1004.42 1004.32 1004.25 1004.24 1004.26 1004.32 1004.43 1004.57 1004.74 1004.93 1005.14 1005.36 1005.58 1005.83 1006.09 1006.39 1006.73 1007.15 1007.64 1008.23 1008.90 1009.67
1010.30 1010.15 1009.93 1009.63 1009.27 1008.86 1008.41 1007.96 1007.50 1007.07 1006.65 1006.27 1005.91 1005.57 1005.25 1004.94 1004.65 1004.38 1004.13 1003.89 1003.69 1003.52 1003.40 1003.32 1003.29 1003.32 1003.41 1003.55 1003.74 1003.96 1004.21 1004.48 1004.75 1005.03 1005.30 1005.59 1005.89 1006.23 1006.63 1007.10 1007.66 1008.32 1009.07
1010.17 1009.99 1009.72 1009.37 1008.96 1008.49 1007.99 1007.48 1006.97 1006.49 1006.04 1005.62 1005.24 1004.89 1004.56 1004.25 1003.96 1003.69 1003.43 1003.18 1002.97 1002.78 1002.64 1002.55 1002.51 1002.54 1002.64 1002.80 1003.02 1003.28 1003.58 1003.89 1004.21 1004.52 1004.83 1005.12 1005.43 1005.75 1006.13 1006.57 1007.09 1007.71 1008.42
1010.01 1009.78 1009.46 1009.06 1008.58 1008.06 1007.50 1006.93 1006.38 1005.86 1005.38 1004.95 1004.56 1004.21 1003.90 1003.62 1003.36 1003.11 1002.87 1002.65 1002.44 1002.25 1002.10 1002.00 1001.95 1001.97 1002.06 1002.22 1002.44 1002.72 1003.04 1003.38 1003.72 1004.06 1004.38 1004.69 1004.99 1005.31 1005.65 1006.05 1006.53 1007.10 1007.76
1009.79 1009.51 1009.13 1008.66 1008.13 1007.54 1006.93 1006.32 1005.73 1005.18 1004.69 1004.25 1003.88 1003.57 1003.30 1003.07 1002.86 1002.67 1002.48 1002.30 1002.12 1001.95 1001.80 1001.69 1001.62 1001.61 1001.67 1001.80 1002.01 1002.27 1002.59 1002.93 1003.28 1003.63 1003.96 1004.27 1004.57 1004.88 1005.20 1005.57 1006.01 1006.52 1007.13
1009.48 1009.14 1008.70 1008.18 1007.59 1006.96 1006.30 1005.66 1005.04 1004.48 1003.98 1003.56 1003.23 1002.96 1002.76 1002.60 1002.47 1002.36 1002.25 1002.12 1001.99 1001.85 1001.70 1001.57 1001.48 1001.43 1001.44 1001.53 1001.69 1001.92 1002.20 1002.52 1002.86 1003.20 1003.53 1003.85 1004.16 1004.47 1004.78 1005.14 1005.54 1006.02 1006.58
1009.07 1008.68 1008.20 1007.63 1007.00 1006.33 1005.65 1004.98 1004.36 1003.79 1003.31 1002.92 1002.63 1002.42 1002.29 1002.22 1002.18 1002.15 1002.12 1002.06 1001.98 1001.86 1001.73 1001.59 1001.46 1001.37 1001.33 1001.35 1001.45 1001.62 1001.85 1002.13 1002.44 1002.78 1003.11 1003.44 1003.76 1004.07 1004.40 1004.75 1005.15 1005.61 1006.15
1008.59 1008.17 1007.66 1007.07 1006.42 1005.73 1005.04 1004.36 1003.73 1003.17 1002.71 1002.35 1002.10 1001.95 1001.88 1001.89 1001.93 1001.98 1002.02 1002.03 1001.99 1001.90 1001.78 1001.63 1001.47 1001.33 1001.23 1001.19 1001.22 1001.33 1001.51 1001.75 1002.03 1002.35 1002.68 1003.02 1003.36 1003.70 1004.06 1004.43 1004.84 1005.30 1005.83
1008.08 1007.65 1007.14 1006.54 1005.89 1005.21 1004.51 1003.83 1003.21 1002.66 1002.21 1001.87 1001.64 1001.53 1001.52 1001.57 1001.67 1001.78 1001.88 1001.93 1001.93 1001.86 1001.74 1001.58 1001.40 1001.22 1001.08 1000.99 1000.96 1001.02 1001.15 1001.35 1001.62 1001.93 1002.27 1002.62 1002.99 1003.37 1003.75 1004.16 1004.60 1005.08 1005.61
1007.58 1007.17 1006.68 1006.10 1005.47 1004.80 1004.11 1003.44 1002.82 1002.27 1001.82 1001.48 1001.27 1001.17 1001.16 1001.24 1001.36 1001.49 1001.61 1001.69 1001.70 1001.65 1001.54 1001.37 1001.18 1000.98 1000.81 1000.68 1000.63 1000.65 1000.76 1000.94 1001.20 1001.51 1001.86 1002.24 1002.64 1003.05 1003.48 1003.93 1004.41 1004.91 1005.46
1007.13 1006.76 1006.31 1005.77 1005.17 1004.52 1003.85 1003.19 1002.56 1002.01 1001.54 1001.18 1000.95 1000.82 1000.80 1000.85 1000.96 1001.08 1001.19 1001.26 1001.27 1001.22 1001.11 1000.94 1000.75 1000.55 1000.38 1000.25 1000.19 1000.22 1000.32 1000.51 1000.77 1001.09 1001.46 1001.87 1002.30 1002.75 1003.22 1003.70 1004.22 1004.75 1005.33
1006.75 1006.44 1006.05 1005.56 1005.00 1004.38 1003.72 1003.06 1002.43 1001.85 1001.35 1000.95 1000.67 1000.49 1000.41 1000.40 1000.45 1000.53 1000.60 1000.64 1000.63 1000.57 1000.45 1000.30 1000.12 999.95 999.80 999.70 999.67 999.72 999.84 1000.05 1000.34 1000.68 1001.07 1001.50 1001.96 1002.44 1002.93 1003.45 1003.99 1004.55 1005.14
1006.44 1006.21 1005.88 1005.45 1004.93 1004.34 1003.70 1003.04 1002.39 1001.78 1001.23 1000.77 1000.42 1000.16 999.99 999.91 999.88 999.88 999.88 999.87 999.82 999.74 999.63 999.49 999.34 999.20 999.10 999.05 999.07 999.17 999.34 999.59 999.90 1000.27 1000.68 1001.13 1001.60 1002.09 1002.60 1003.13 1003.69 1004.26 1004.87
1006.20 1006.05 1005.78 1005.41 1004.93 1004.37 1003.74 1003.08 1002.41 1001.76 1001.17 1000.64 1000.21 999.86 999.60 999.41 999.28 999.19 999.11 999.04 998.95 998.84 998.72 998.60 998.49 998.40 998.35 998.37 998.45 998.60 998.82 999.11 999.46 999.85 1000.28 1000.73 1001.20 1001.69 1002.20 1002.73 1003.28 1003.86 1004.47
1006.01 1005.93 1005.72 1005.40 1004.97 1004.43 1003.82 1003.16 1002.48 1001.80 1001.16 1000.58 1000.07 999.63 999.28 998.99 998.76 998.57 998.41 998.26 998.12 997.99 997.86 997.75 997.67 997.63 997.64 997.71 997.85 998.06 998.34 998.66 999.03 999.43 999.86 1000.31 1000.77 1001.24 1001.73 1002.25 1002.79 1003.36 1003.96
1005.86 1005.84 1005.69 1005.41 1005.01 1004.51 1003.91 1003.26 1002.58 1001.89 1001.22 1000.59 1000.03 999.52 999.09 998.71 998.39 998.11 997.87 997.66 997.46 997.29 997.15 997.04 996.98 996.98 997.03 997.16 997.35 997.60 997.90 998.25 998.63 999.03 999.45 999.87 1000.30 1000.75 1001.21 1001.70 1002.22 1002.77 1003.36
1005.74 1005.77 1005.66 1005.42 1005.06 1004.59 1004.02 1003.39 1002.72 1002.04 1001.36 1000.72 1000.12 999.57 999.07 998.63 998.24 997.89 997.58 997.30 997.05 996.84 996.68 996.57 996.51 996.52 996.60 996.75 996.97 997.24 997.55 997.90 998.27 998.66 999.04 999.43 999.83 1000.24 1000.67 1001.12 1001.61 1002.14 1002.72
Thickness
5647 5642 5637 5632 5628 5623 5619 5615 5612 5609 5606 5604 5603 5602 5601 5601 5601 5602 5604 5606 5609 5612 5616 5620 5625 5630 5634 5638 5642 5647 5651 5655 5658 5666 5675 5682 5686 5691 5694 5698 5702 5705 5708
5644 5638 5632 5627 5622 5616 5611 5607 5604 5600 5598 5595 5594 5592 5591 5591 5591 5591 5592 5595 5597 5599 5603 5607 5612 5617 5622 5627 5631 5637 5642 5647 5651 5656 5664 5671 5676 5681 5685 5688 5691 5696 5700
5641 5634 5628 5621 5615 5610 5605 5601 5596 5593 5590 5587 5585 5583 5582 5581 5581 5581 5581 5583 5584 5587 5590 5593 5598 5603 5608 5614 5620 5625 5631 5637 5643 5648 5654 5662 5667 5671 5675 5678 5681 5686 5691
5638 5631 5624 5617 5611 5605 5600 5595 5590 5586 5582 5580 5577 5575 5573 5572 5571 5570 5570 5571 5572 5574 5576 5580 5584 5589 5595 5601 5607 5613 5619 5625 5632 5639 5645 5652 5658 5661 5667 5669 5671 5676 5681
5634 5627 5621 5615 5607 5600 5594 5588 5584 5580 5577 5573 5570 5567 5565 5562 5561 5560 5558 5558 5558 5559 5562 5565 5569 5575 5582 5588 5595 5601 5607 5614 5621 5629 5635 5642 5648 5652 5658 5662 5664 5667 5671
5631 5624 5618 5610 5603 5595 5589 5583 5578 5573 5569 5566 5562 5559 5556 5555 5554 5551 5548 5545 5544 5544 5546 5549 5553 5560 5567 5575 5583 5590 5597 5604 5611 5618 5626 5633 5642 5648 5652 5655 5658 5660 5663
5627 5620 5613 5605 5597 5590 5584 5578 5572 5567 5563 5559 5555 5551 5548 5546 5544 5541 5539 5536 5533 5532 5532 5534 5539 5547 5552 5559 5567 5576 5585 5594 5603 5610 5617 5625 5634 5642 5647 5650 5653 5655 5659
5623 5615 5607 5600 5592 5585 5578 5572 5567 5562 5557 5553 5549 5546 5542 5540 5537 5534 5530 5527 5524 5522 5521 5522 5524 5529 5535 5542 5549 5559 5569 5580 5591 5601 5610 5618 5625 5634 5641 5646 5648 5647 5649
5617 5609 5602 5594 5587 5580 5573 5568 5563 5558 5553 5548 5544 5541 5537 5535 5531 5527 5522 5518 5514 5513 5511 5511 5512 5516 5522 5527 5533 5543 5554 5565 5576 5586 5596 5606 5615 5624 5631 5634 5636 5638 5641
5612 5604 5597 5589 5582 5576 5569 5564 5559 5553 5548 5545 5541 5536 5532 5529 5525 5520 5515 5510 5506 5504 5502 5502 5504 5506 5509 5514 5521 5530 5540 5552 5562 5572 5582 5592 5602 5612 5621 5628 5634 5636 5639
5607 5599 5592 5585 5578 5572 5566 5561 5555 5549 5545 5541 5536 5532 5527 5523 5520 5515 5510 5504 5500 5496 5494 5493 5494 5496 5500 5504 5512 5521 5532 5540 5549 5559 5569 5579 5589 5600 5610 5620 5627 5634 5638
5601 5594 5587 5580 5574 5570 5562 5557 5551 5545 5541 5537 5532 5527 5522 5518 5514 5510 5506 5501 5496 5491 5490 5489 5489 5491 5494 5498 5505 5514 5522 5529 5538 5547 5557 5569 5581 5592 5602 5611 5620 5626 5633
5596 5588 5582 5576 5570 5565 5559 5553 5548 5543 5537 5533 5528 5522 5518 5514 5509 5506 5502 5498 5494 5490 5488 5488 5489 5490 5492 5495 5502 5509 5515 5523 5531 5540 5551 5562 5573 5583 5593 5602 5609 5615 5620
5590 5583 5578 5573 5568 5562 5557 5551 5545 5541 5536 5531 5526 5520 5514 5509 5505 5501 5498 5495 5493 5490 5487 5487 5488 5489 5492 5497 5501 5507 5514 5521 5529 5537 5545 5554 5563 5573 5584 5594 5602 5608 5611
5585 5579 5574 5570 5565 5560 5555 5550 5545 5541 5535 5531 5526 5520 5513 5508 5504 5500 5495 5493 5491 5489 5488 5487 5487 5489 5493 5497 5501 5506 5512 5518 5525 5532 5539 5547 5557 5566 5577 5588 5596 5602 5608
5581 5576 5571 5567 5563 5558 5553 5551 5548 5543 5539 5534 5528 5521 5515 5510 5505 5500 5497 5495 5493 5491 5490 5490 5491 5493 5496 5500 5503 5507 5511 5517 5523 5529 5536 5544 5552 5562 5571 5581 5589 5596 5602
5578 5573 5570 5565 5561 5556 5552 5547 5545 5545 5542 5536 5530 5523 5516 5511 5505 5501 5498 5495 5494 5493 5492 5493 5495 5497 5500 5503 5506 5509 5513 5517 5522 5527 5533 5541 5549 5557 5566 5575 5583 5590 5596
5575 5571 5568 5563 5558 5554 5550 5547 5543 5540 5539 5536 5531 5525 5519 5512 5507 5502 5498 5495 5495 5495 5495 5497 5499 5502 5504 5506 5508 5511 5515 5518 5522 5527 5533 5539 5546 5554 5562 5570 5578 5585 5590
5572 5568 5564 5560 5557 5553 5550 5547 5543 5541 5538 5534 5530 5526 5521 5514 5508 5503 5500 5497 5497 5499 5500 5502 5504 5506 5508 5510 5512 5515 5517 5520 5524 5528 5533 5538 5544 5551 5559 5566 5573 5577 5584
5569 5567 5564 5559 5556 5552 5549 5546 5544 5541 5538 5535 5531 5527 5521 5514 5510 5507 5503 5501 5501 5503 5505 5507 5510 5512 5514 5515 5517 5518 5520 5523 5526 5529 5533 5538 5543 5550 5556 5562 5568 5574 5580
5565 5561 5561 5557 5553 5550 5548 5546 5544 5541 5538 5535 5533 5531 5525 5518 5516 5514 5511 5509 5509 5510 5512 5513 5515 5517 5519 5520 5521 5522 5524 5526 5529 5532 5535 5538 5542 5547 5554 5559 5565 5570 5576
5561 5557 5555 5554 5551 5549 5547 5545 5543 5541 5538 5536 5534 5532 5528 5522 5520 5519 5518 5518 5518 5518 5519 5519 5520 5522 5524 5525 5525 5526 5527 5529 5532 5534 5536 5539 5542 5546 5551 5556 5561 5566 5571
5556 5554 5552 5551 5549 5546 5545 5543 5541 5539 5538 5536 5534 5532 5528 5525 5523 5522 5522 5522 5523 5523 5523 5523 5524 5525 5527 5528 5530 5531 5532 5533 5535 5537 5537 5539 5541 5545 5549 5554 5559 5563 5568
5552 5550 5549 5547 5545 5542 5541 5540 5539 5538 5537 5536 5534 5532 5530 5527 5525 5525 5525 5524 5524 5525 5526 5526 5527 5528 5530 5531 5532 5533 5535 5536 5537 5538 5540 5541 5542 5544 5547 5552 5557 5562 5566
5548 5546 5544 5542 5539 5538 5537 5537 5536 5536 5535 5534 5533 5532 5530 5528 5527 5526 5525 5525 5525 5525 5526 5527 5528 5529 5531 5532 5533 5534 5535 5536 5537 5539 5540 5541 5543 5545 5548 5552 5556 5560 5564
5543 5540 5538 5536 5534 5532 5532 5532 5532 5532 5532 5533 5532 5531 5530 5528 5527 5526 5525 5524 5524 5525 5526 5527 5528 5529 5530 5532 5533 5533 5533 5534 5535 5537 5539 5541 5543 5545 5549 5553 5556 5560 5564